Location: Roland
(31.1349°N, 85.4372°W)
Time: 18:40:07
(UTC+00:00)

SR - Pass Details

Date: 21 April 2021
Orbit: 573 x 882 km, 66.7° (Epoch: 12 May)

Event Time Altitude Azimuth Distance (km) Brightness Sun altitude
Rises 22:45:46 0° 324° (NW) 3,405 ? 17.9°
Reaches altitude 10° 22:48:28 10° 317° (NW) 2,429 ? 17.3°
Maximum altitude 22:53:31 36° 252° (WSW) 1,232 ? 16.2°
Drops below altitude 10° 22:58:12 10° 187° (S) 2,240 ? 15.2°
Sets 23:00:37 0° 178° (S) 3,106 ? 14.7°
